Location: Burbank
(38.7788°N, 114.0429°W)
Time: 20:47:31
(UTC+00:00)

Vanguard 2 - Pass Details

Date: 15 May 2026
Orbit: 553 x 2894 km, 32.9° (Epoch: 6 June)

Event Time Altitude Azimuth Distance (km) Brightness Sun altitude
Rises 10:12:18 0° 247° (WSW) 6,506 - -21.2°
Reaches altitude 10° 10:16:28 10° 245° (WSW) 5,618 - -20.7°
Exits shadow 10:20:47 22° 241° (WSW) 4,730 10.9 -20.1°
Maximum altitude 10:33:54 66° 169° (SSE) 2,949 10.2 -18.4°
Drops below altitude 10° 10:48:18 10° 91° (E) 4,754 12.2 -16.3°
Sets 10:51:30 0° 89° (E) 5,498 12.7 -15.9°
